Helicity
48 46 44 50 58 56 72 75 55 56 52 57 58 66 72 65 59 57 59 64 57 55 55 55 55 51 17 51 55 71 87 70 59 79 49 40 23 41 24 16 -33 -88 1 -11 22 5 78
18 0 32 49 41 50 43 50 80 64 45 45 46 57 70 77 67 57 60 60 54 56 49 54 58 81 22 5 42 136 72 57 48 61 38 15 26 -2 19 -5 -90 -38 -76 -72 -36 36 41
114 83 68 33 59 78 48 42 44 70 74 55 46 42 54 73 78 79 71 63 59 53 45 35 52 50 47 125 33 50 57 40 68 32 25 -6 7 44 14 -51 -84 -127 -74 -60 -8 42 131
82 78 105 97 99 57 49 81 60 62 70 73 67 50 43 44 60 78 82 71 66 48 35 24 35 49 46 46 56 74 53 -7 11 40 -3 7 -28 21 40 -34 -102 -82 -41 -2 17 161 96
61 62 70 61 74 78 82 83 80 87 80 68 63 70 53 40 36 51 77 64 65 69 38 14 43 38 48 43 62 34 10 20 12 30 -6 -12 22 35 36 27 -51 -39 48 106 141 111 88
46 55 56 57 57 60 58 74 78 77 86 81 73 62 55 62 54 36 62 76 94 54 35 16 62 81 53 79 57 68 36 15 46 60 33 22 46 40 53 84 35 18 72 80 102 52 132
50 52 47 50 50 48 44 43 57 58 73 82 73 79 79 58 63 53 42 54 85 86 67 89 52 108 56 110 159 72 57 31 8 64 124 60 81 57 49 37 14 66 38 -9 -2 77 126
45 40 33 29 32 38 40 44 48 48 51 60 68 71 89 88 66 82 74 76 63 120 20 52 59 81 33 46 119 106 69 98 94 78 135 83 120 41 -1 -21 -10 59 19 11 -21 120 66
42 41 39 35 30 33 35 49 60 66 55 54 63 54 60 83 91 101 130 80 117 184 58 -41 65 158 137 70 107 2 95 119 116 95 96 146 72 71 -7 -20 8 11 -26 11 -4 36 17
38 43 42 39 40 47 48 50 56 70 84 76 66 66 52 88 86 166 137 123 179 184 36 -9 104 104 117 163 178 7 20 122 136 88 31 106 50 -35 -2 48 13 -28 1 -7 -36 41 15
41 47 49 55 62 61 64 59 53 46 59 80 75 87 69 55 102 97 272 252 253 81 101 32 73 28 41 283 228 87 -14 123 141 89 177 145 44 38 -11 -13 59 12 -31 48 20 0 18
46 45 48 63 64 63 62 60 49 49 48 47 77 84 91 101 46 -54 64 257 186 257 148 152 141 120 136 69 110 252 121 92 180 76 40 18 10 -46 -16 -14 50 9 -8 24 43 27 -40
43 45 53 49 44 47 55 61 61 55 49 46 55 82 121 118 39 115 29 273 373 387 256 192 234 150 95 111 52 22 161 185 229 179 136 17 -75 -60 -6 16 40 78 58 22 59 25 0
42 46 43 33 36 46 49 57 60 69 68 54 48 74 98 102 21 126 40 331 443 251 300 127 177 114 131 105 87 62 89 141 136 158 178 124 36 -58 -8 29 51 80 79 97 59 33 -6
43 45 40 33 31 32 44 54 66 74 77 60 33 85 138 86 33 113 149 279 345 307 251 155 28 257 156 42 80 89 66 108 116 132 195 188 69 43 -39 45 74 10 59 24 37 74 3
26 30 38 45 43 43 51 61 72 76 69 46 119 117 129 55 94 108 223 142 149 191 312 225 79 65 200 47 41 106 114 94 94 67 109 131 126 -7 15 37 50 -15 46 37 51 78 22
12 15 21 30 37 41 48 68 73 86 72 54 161 161 128 62 144 178 226 211 91 133 192 167 121 159 92 122 121 101 79 74 110 131 110 22 81 76 19 46 23 87 -15 31 44 69 76
16 18 21 21 22 26 51 72 79 91 80 77 217 223 88 162 203 223 178 282 93 159 105 104 54 176 288 91 87 86 104 41 72 83 108 100 90 71 30 73 66 107 134 51 126 35 64
16 5 5 18 2 -12 3 58 81 73 95 194 303 369 130 271 297 191 152 62 8 131 59 172 19 -10 80 185 101 37 37 32 61 52 120 167 97 142 98 60 39 123 102 104 57 104 38
4 6 18 29 20 19 57 65 68 61 97 227 351 445 417 222 209 200 183 115 46 79 29 73 25 92 59 162 136 65 33 3 82 139 83 206 194 119 98 175 131 126 66 38 84 65 53
5 8 23 31 98 132 115 50 63 69 87 277 390 480 565 292 260 148 162 150 28 55 98 107 74 -21 96 155 142 110 -8 -50 80 121 53 123 140 134 159 4 70 17 58 28 61 80 127
22 51 125 156 137 106 93 107 66 64 75 268 414 467 472 352 259 225 158 90 85 63 126 117 57 2 106 140 163 0 -4 -25 11 110 87 132 193 151 122 140 65 85 -1 23 49 31 115
71 100 103 111 118 105 74 47 26 77 93 256 348 308 359 282 319 280 198 76 82 92 90 51 65 16 -22 138 192 50 -77 -58 46 7 162 219 163 217 141 122 101 73 10 4 6 23 111
81 70 71 76 76 71 70 59 48 60 85 91 329 407 447 341 326 242 197 128 106 125 78 87 60 77 -119 46 38 51 62 1 9 6 33 182 202 245 251 249 149 154 -29 93 53 3 36
58 59 52 55 45 55 66 68 58 43 38 72 291 415 438 409 245 175 198 154 116 146 72 116 69 22 -12 58 130 64 -22 -10 -77 -41 54 273 194 236 271 260 207 117 154 103 61 14 42
52 54 63 33 34 53 75 110 94 72 68 152 148 221 445 424 357 172 214 181 183 120 130 92 -8 53 56 124 129 78 -6 -54 35 10 0 21 309 311 338 241 125 68 131 124 85 83 112
47 54 59 46 49 62 70 80 114 113 82 174 201 77 276 488 442 241 193 148 130 122 126 86 65 59 54 63 134 112 59 -9 1 -81 -3 27 249 336 348 254 204 151 60 47 150 94 34
29 52 60 60 59 64 73 76 81 132 104 168 235 147 215 269 240 356 279 192 189 94 82 85 61 87 155 109 114 114 59 10 -28 46 -14 26 33 35 42 112 130 118 183 190 173 83 14
46 39 37 47 40 69 82 89 98 89 154 209 292 263 188 106 363 304 269 194 172 48 90 55 90 101 188 157 175 146 196 100 35 20 73 113 87 -11 -37 -23 4 123 145 97 326 263 34
Wind_Speed
71 75 72 74 74 71 70 69 70 71 70 70 70 70 71 69 69 69 69 70 70 72 73 74 72 71 60 35 27 24 20 20 18 15 11 13 14 13 8 14 18 31 16 3 8 60 54
70 71 73 75 74 74 75 73 71 72 72 71 71 71 72 72 71 71 72 72 72 73 74 72 69 66 46 25 35 12 7 16 11 8 13 5 15 7 1 7 23 11 9 7 29 57 55
73 75 74 72 71 71 71 72 74 74 73 74 73 71 71 73 74 75 75 76 76 74 72 69 66 58 51 28 40 34 29 18 11 5 1 3 5 9 20 25 17 25 25 2 5 18 37
73 74 72 75 75 72 70 69 72 73 72 70 72 72 74 73 74 77 79 80 79 77 74 69 60 54 55 52 37 23 27 14 4 7 16 7 4 7 19 25 17 20 21 20 8 21 39
75 75 74 76 75 73 72 69 67 67 69 70 70 71 73 72 73 76 80 83 85 80 72 62 54 44 65 57 39 25 14 18 6 11 8 4 8 20 23 21 26 9 5 16 21 15 33
73 73 75 74 76 74 71 71 69 68 66 67 69 72 72 72 71 73 78 85 83 69 58 48 48 56 53 42 38 28 14 17 11 6 11 15 21 16 14 9 7 5 13 33 24 13 11
75 73 72 70 72 74 73 71 69 65 61 64 65 66 67 67 69 69 70 60 54 54 46 49 46 48 65 52 59 27 12 16 16 20 13 14 14 15 8 10 13 13 19 50 22 12 18
79 79 78 77 75 76 76 75 72 71 67 63 63 63 64 65 65 63 61 54 46 54 79 62 69 66 60 70 61 61 18 19 21 19 15 13 18 13 11 12 13 17 26 34 28 27 22
78 79 79 78 76 74 73 72 70 69 70 64 60 61 63 61 61 62 56 54 65 70 77 85 64 66 41 44 52 43 37 23 26 21 21 20 11 16 15 14 11 14 16 19 20 15 11
80 78 77 76 73 71 70 70 69 67 66 63 61 58 58 52 57 53 49 46 49 47 78 81 61 61 45 40 53 40 38 26 36 26 22 36 20 19 18 23 26 23 3 28 33 25 18
83 82 78 76 73 71 69 68 66 63 62 60 58 53 51 44 57 54 49 56 59 30 85 53 47 28 28 28 30 29 37 39 32 26 24 24 24 25 22 11 18 15 2 33 34 34 30
87 85 81 77 74 70 67 64 62 60 57 56 54 50 46 49 49 49 57 58 36 51 83 56 37 36 30 23 33 38 29 35 40 34 32 25 20 21 20 13 14 29 34 33 24 26 10
87 83 80 76 73 69 66 62 58 56 53 52 51 47 44 43 48 42 46 42 51 74 50 63 50 38 41 39 39 44 30 39 43 38 39 34 31 24 20 15 16 18 20 31 38 27 1
87 84 81 75 71 70 67 63 58 54 49 47 45 44 44 43 49 48 43 47 74 76 65 39 30 50 49 44 43 39 46 47 47 38 38 42 49 30 23 21 16 9 6 17 23 16 32
86 82 77 72 71 69 66 62 57 52 47 43 43 45 45 45 48 41 44 68 81 66 55 76 66 73 63 45 48 37 54 58 47 45 47 39 50 31 29 21 16 8 12 7 18 29 36
92 87 83 80 78 76 71 63 55 47 41 38 43 45 48 43 40 38 56 80 80 70 76 70 78 62 61 49 49 47 46 50 57 42 44 53 51 32 38 25 22 27 30 13 17 23 33
103 101 98 94 89 83 77 66 55 45 38 34 42 50 40 32 31 47 72 75 74 73 74 79 75 80 77 70 58 62 61 56 36 44 42 49 57 48 32 37 29 21 22 24 21 21 31
108 107 104 104 100 94 81 69 60 47 37 34 44 57 29 28 45 53 68 55 64 64 65 82 74 79 85 80 74 66 66 71 62 49 46 45 50 58 58 65 30 36 27 23 27 22 27
109 109 108 104 105 104 96 81 64 48 44 42 51 49 38 37 51 51 52 83 106 83 68 60 77 73 75 86 77 63 61 64 74 66 53 48 55 60 58 59 40 36 28 25 23 29 30
111 111 110 104 103 96 76 66 58 53 51 48 47 53 48 51 52 54 48 91 99 74 104 82 89 98 97 90 85 77 74 59 64 66 58 48 56 64 59 53 42 36 32 31 29 34 39
113 112 109 104 71 64 69 75 53 54 58 56 55 59 49 56 72 56 52 63 81 91 56 57 81 88 88 90 85 81 74 73 67 59 53 52 66 60 63 49 42 45 52 31 36 34 37
109 96 72 65 66 64 61 55 49 49 53 63 65 61 55 62 58 61 64 59 75 63 65 71 79 75 73 94 91 80 64 66 61 65 55 53 65 63 70 69 62 56 50 44 42 37 47
68 62 63 63 63 63 64 62 57 55 56 60 66 66 54 69 59 63 70 68 63 60 75 60 61 72 91 95 81 63 63 66 74 67 73 70 66 66 76 72 73 95 62 40 58 55 46
62 65 65 65 66 66 65 65 64 65 67 69 61 63 66 72 72 71 64 67 74 71 71 76 60 70 72 44 37 43 63 71 74 78 71 81 74 70 74 61 85 68 52 43 41 58 65
65 67 67 69 69 71 71 71 72 73 73 77 54 67 72 81 70 75 75 72 68 72 81 76 83 75 60 65 80 71 72 81 83 79 74 72 68 61 74 74 69 91 64 53 55 67 66
64 68 73 76 80 80 78 78 77 79 79 80 77 68 71 82 78 69 70 69 70 70 77 84 88 71 60 61 72 93 85 77 75 76 63 64 44 58 55 70 86 65 62 61 60 82 56
46 48 53 63 68 66 65 65 69 72 75 75 75 67 67 76 67 53 64 62 56 62 70 73 79 69 58 75 87 84 85 76 74 73 68 55 40 56 69 73 75 54 49 56 68 62 57
42 45 44 55 56 60 62 62 64 71 70 71 67 68 77 65 72 68 56 57 49 60 68 67 66 68 69 76 82 80 78 92 85 70 61 56 51 48 63 74 80 51 54 52 60 66 72
38 39 37 41 68 69 58 61 59 64 73 71 76 70 82 58 61 68 65 43 52 55 59 75 65 56 56 66 71 65 79 79 97 112 72 65 57 59 55 73 63 57 50 51 44 67 60
Wind_Direction
299 296 298 295 294 296 297 298 296 294 296 296 297 299 299 301 303 305 306 305 304 304 304 304 305 305 315 327 314 335 349 359 9 14 11 4 1 25 29 17 357 350 16 289 344 292 326
301 299 297 296 295 294 291 292 295 294 294 295 295 296 296 298 301 303 304 304 302 301 301 302 305 308 316 301 322 334 2 351 348 4 350 14 352 34 276 311 350 359 314 284 343 316 317
301 296 295 296 297 297 296 294 291 292 293 292 293 295 296 296 297 298 299 299 298 298 297 300 304 311 306 241 311 315 318 332 351 169 139 4 164 347 355 351 9 0 359 310 214 359 343
301 298 297 294 293 296 297 297 293 292 292 294 293 294 293 296 297 296 295 295 294 294 294 298 306 309 301 305 305 232 225 217 275 170 183 178 323 280 340 348 350 360 3 2 256 347 347
299 298 298 295 296 297 294 297 298 297 296 293 294 295 294 295 296 296 294 292 288 289 294 299 305 305 299 298 308 295 238 289 235 180 180 308 337 339 337 342 342 359 341 348 1 4 350
303 302 298 299 296 297 298 297 297 295 297 297 294 292 294 294 297 299 298 292 285 294 299 301 299 295 299 308 309 313 293 280 279 296 315 313 325 323 329 332 359 36 3 357 9 42 21
303 302 302 303 301 297 296 296 297 298 299 299 299 298 295 297 296 300 304 306 297 297 296 286 290 288 288 299 296 311 300 278 277 291 276 294 295 268 256 223 224 231 335 339 1 22 3
301 299 299 298 298 296 295 294 294 293 296 297 298 300 296 297 297 300 301 293 297 304 287 286 282 281 282 284 289 279 289 274 261 244 265 276 229 255 246 226 245 253 345 340 0 41 11
302 301 299 298 297 296 294 293 292 292 291 293 296 299 300 296 299 296 292 288 291 300 287 283 282 281 260 269 273 273 277 247 265 256 260 248 274 208 205 218 259 318 339 344 343 15 20
302 301 300 297 295 294 294 292 291 290 290 291 289 294 298 300 297 296 290 300 299 302 287 286 289 285 271 264 274 222 264 245 272 249 251 280 230 227 217 224 311 329 175 344 341 352 354
301 300 299 297 295 293 292 291 290 289 288 288 288 288 293 291 293 289 297 300 296 299 278 293 288 299 298 236 287 258 207 261 240 242 258 255 287 216 222 252 305 315 331 340 341 340 349
300 299 297 296 293 292 290 288 288 286 286 286 286 284 286 291 290 283 293 293 286 274 269 284 285 278 285 236 269 294 229 239 270 252 252 256 237 247 239 266 283 310 319 329 341 339 274
298 297 295 293 291 290 289 287 285 284 283 283 282 281 277 282 284 292 297 283 261 260 279 276 277 277 276 273 264 266 268 235 243 250 249 252 232 235 267 257 283 299 312 317 322 334 254
296 295 293 289 288 287 287 285 283 281 279 279 280 276 274 274 278 282 284 258 258 261 251 291 287 280 273 275 268 262 257 259 244 248 270 261 267 222 277 234 283 236 255 299 328 332 334
295 293 290 286 284 284 284 282 280 278 273 273 274 273 272 267 267 271 264 250 257 258 263 259 275 283 269 276 275 262 256 261 251 234 255 259 262 285 249 288 227 271 245 203 307 324 323
289 288 285 282 281 281 281 279 275 272 267 263 268 271 266 259 259 258 256 255 262 261 266 271 261 274 275 270 270 263 270 269 260 238 241 267 273 244 272 251 243 208 282 288 298 313 311
278 275 275 274 276 277 276 276 270 262 256 250 261 270 268 241 246 252 249 256 264 266 263 261 264 263 268 275 289 278 268 269 257 247 235 243 266 276 249 253 230 238 218 268 294 284 308
270 269 269 268 269 271 274 271 265 253 238 237 258 261 257 208 239 251 248 250 267 266 263 261 262 264 264 269 276 280 277 264 273 258 232 240 258 263 265 270 232 220 224 234 264 287 298
266 263 264 268 265 262 265 266 260 244 223 236 254 259 254 216 241 227 214 218 238 259 261 270 258 258 264 264 271 272 281 269 272 267 245 237 241 260 266 266 272 219 241 266 255 274 272
265 265 266 270 268 268 271 266 254 237 220 227 247 250 249 232 237 223 228 253 246 261 240 257 259 255 257 264 263 269 272 274 284 272 253 233 247 245 248 265 263 257 247 259 254 268 282
264 266 270 271 274 271 271 267 249 231 216 218 240 251 245 227 214 233 246 266 257 254 260 263 261 255 253 259 263 265 268 269 274 273 268 247 242 245 252 254 267 254 268 250 241 250 265
274 280 281 277 272 269 266 260 248 226 214 220 240 243 241 251 244 238 249 249 257 266 262 259 260 259 256 253 255 262 267 265 269 263 270 258 254 245 248 255 259 264 266 269 271 266 270
285 281 279 274 269 265 261 255 243 232 222 237 236 242 244 248 251 242 231 226 256 261 268 263 265 259 252 248 263 269 267 262 259 263 260 266 253 250 251 250 259 260 261 255 270 273 271
285 282 277 273 268 263 257 250 242 235 226 239 243 232 241 250 236 238 246 247 255 258 263 266 262 261 233 272 280 276 266 260 260 258 269 263 256 247 250 250 251 262 260 262 268 274 271
285 281 277 272 266 261 254 247 241 236 230 234 244 232 237 245 241 245 249 253 256 257 258 265 262 267 267 260 257 266 263 255 253 256 262 263 250 249 245 247 262 255 260 263 270 275 270
286 281 277 272 268 262 253 244 239 236 233 234 239 241 239 236 246 244 247 250 255 255 258 260 259 264 265 254 253 251 251 249 248 252 259 274 246 237 250 250 252 266 259 263 275 268 273
275 269 270 270 265 256 249 239 229 224 226 227 237 232 242 240 238 243 242 248 251 256 256 256 253 255 259 252 246 247 249 244 244 240 248 263 258 249 249 255 258 274 264 260 261 271 278
299 290 276 270 261 251 243 235 226 220 214 218 230 227 233 247 242 236 245 248 250 251 251 251 248 247 247 246 244 246 249 239 241 245 249 256 255 262 254 254 254 273 269 256 266 273 272
313 302 288 270 264 248 233 228 214 208 211 211 228 224 223 250 244 236 239 248 252 253 252 244 247 251 247 246 247 252 247 245 239 238 252 257 262 264 267 257 266 270 280 270 286 276 284